Location: B?jaj?g
(11.7167°N, 92.6667°E)
Time: 14:58:16
(UTC+00:00)

ALOS - Pass Details

Date: 18 September 2020
Orbit: 683 x 685 km, 97.9° (Epoch: 28 October)

Event Time Altitude Azimuth Distance (km) Brightness Sun altitude
Rises 22:54:26 0° 352° (N) 3,035 5.6 -11.6°
Reaches altitude 10° 22:56:59 10° 339° (NNW) 2,119 4.6 -11.0°
Maximum altitude 23:00:45 25° 284° (WNW) 1,363 3.3 -10.1°
Drops below altitude 10° 23:04:32 10° 229° (SW) 2,119 4.3 -9.2°
Sets 23:07:06 0° 216° (SW) 3,034 5.2 -8.5°
